{"data":{"norad_id":54692,"epoch":"2026-09-21T22:41:07.662912Z","epoch_age_seconds":37374,"freshness":"FRESH","line1":"1 54692U 22167L   26264.94522758  .00006881  00000+0  20211-3 0  9997","line2":"2 54692  97.7003  78.6796 0008341 129.5845 230.6136 15.35449176210185","mean_motion":15.35449176,"eccentricity":0.0008341,"inclination_deg":97.7003,"raan_deg":78.6796,"arg_perigee_deg":129.5845,"mean_anomaly_deg":230.6136,"bstar":0.00020211,"rev_number":21018,"period_min":93.783631689545,"perigee_km":453.88329853396,"apogee_km":465.28998911659,"semimajor_km":6837.7236438253,"source":"CELESTRAK","updated_at":"2026-09-22T09:00:25.186652Z"}}